Waarnemingen

Advertentie
Mijn weer
Luqa, Malta (16597): temperatuur & dauwpunt: 15.08.2018 03:00:00 - 21.08.2018 03:00:00 (CEST)Luqa, Malta (16597): windsnelheid: 15.08.2018 03:00:00 - 21.08.2018 03:00:00 (CEST)Luqa, Malta (16597): windrichting: 15.08.2018 03:00:00 - 21.08.2018 03:00:00 (CEST)Luqa, Malta (16597): luchtdruk: 15.08.2018 03:00:00 - 21.08.2018 03:00:00 (CEST)Luqa, Malta (16597): zicht: 15.08.2018 03:00:00 - 21.08.2018 03:00:00 (CEST)
Datum & Tijd tt [°C] td [°C] ff [km/u] ff [kn] dd ppp [hPa] vv [km]
21.08.2018 03:00:00 22,0 21,0 5 3 W - 10
21.08.2018 02:00:00 22,5 21,5 4 2 W 1011,5 10
21.08.2018 01:00:00 23,0 22,0 2 1 Z - 10
21.08.2018 00:00:00 23,0 22,0 5 3 WZW - 10
20.08.2018 23:00:00 22,2 20,1 8 4 ZZW 1012,1 10
20.08.2018 22:00:00 24,0 20,0 9 5 WZW - 4,0
20.08.2018 21:00:00 25,0 19,0 11 6 W - 10
20.08.2018 20:00:00 26,0 19,0 11 6 W - 10
20.08.2018 19:00:00 26,0 19,0 16 9 WNW - 10
20.08.2018 18:00:00 27,0 18,0 16 9 W - 10
20.08.2018 17:00:00 27,8 17,7 13 7 WZW 1011,2 10
20.08.2018 16:00:00 29,0 16,0 18 10 WNW - 10
20.08.2018 15:00:00 29,0 17,0 11 6 WNW - 10
20.08.2018 14:00:00 29,4 18,4 21 11 NW 1012,2 10
20.08.2018 13:00:00 29,0 19,0 21 11 WNW - 10
20.08.2018 12:00:00 28,0 20,0 18 10 NNW - 10
20.08.2018 11:00:00 28,1 19,7 15 8 NNW 1012,8 10
20.08.2018 10:00:00 28,0 19,0 24 13 NW - 10
20.08.2018 09:00:00 27,0 20,0 22 12 WNW - 10
20.08.2018 08:00:00 25,8 20,8 18 10 WNW 1012,2 10
20.08.2018 07:00:00 25,0 21,0 8 4 W - 10
20.08.2018 06:00:00 24,0 21,0 4 2 WNW - 10
20.08.2018 05:00:00 24,4 20,9 11 6 NW 1012,4 10
20.08.2018 04:00:00 24,0 21,0 11 6 WNW - 10
20.08.2018 03:00:00 24,0 21,0 4 2 WZW - 10
20.08.2018 02:00:00 24,6 21,1 4 2 - 1012,7 10
20.08.2018 01:00:00 25,0 21,0 8 4 NW - 10
20.08.2018 00:00:00 25,0 21,0 8 4 NNW - 10
19.08.2018 23:00:00 25,4 21,2 11 6 N 1014,3 10
19.08.2018 22:00:00 25,0 21,0 16 9 NNW - 10
19.08.2018 21:00:00 26,0 22,0 9 5 NW - 10
19.08.2018 20:00:00 26,6 21,2 15 8 NNW 1013,8 10
19.08.2018 19:00:00 28,0 19,0 15 8 NW - 10
19.08.2018 18:00:00 29,0 19,0 11 6 N - 10
19.08.2018 17:00:00 29,4 18,9 22 12 NNO 1014,0 10
19.08.2018 16:00:00 29,0 21,0 21 11 NO - 10
19.08.2018 15:00:00 28,0 23,0 13 7 ONO - 10
19.08.2018 14:00:00 28,0 22,0 9 5 NO - 10
19.08.2018 13:00:00 29,0 22,0 9 5 NO - 10
19.08.2018 12:00:00 28,0 22,0 5 3 NO - 10
19.08.2018 11:00:00 28,6 21,6 15 8 WZW 1015,5 10
19.08.2018 10:00:00 29,0 22,0 8 4 WNW - 10
19.08.2018 09:00:00 28,0 22,0 9 5 W - 10
19.08.2018 08:00:00 25,3 23,0 4 2 W 1015,4 10
19.08.2018 07:00:00 24,0 23,0 4 2 W - 10
19.08.2018 06:00:00 23,0 22,0 5 3 WNW - 10
19.08.2018 05:00:00 23,6 21,8 8 4 NNW 1014,6 10
19.08.2018 04:00:00 24,0 22,0 8 4 N - 10
19.08.2018 03:00:00 24,0 22,0 5 3 NNW - 10
19.08.2018 02:00:00 23,7 21,6 9 5 NW 1015,2 10
19.08.2018 01:00:00 24,0 22,0 11 6 NNW - 10
19.08.2018 00:00:00 24,0 22,0 9 5 N - 10
18.08.2018 23:00:00 24,9 21,3 5 3 WNW 1016,2 10
18.08.2018 22:00:00 25,0 21,0 11 6 NNW - 10
18.08.2018 21:00:00 26,0 21,0 15 8 N - 10
18.08.2018 20:00:00 26,8 20,0 15 8 N 1015,1 10
18.08.2018 19:00:00 29,0 17,0 13 7 NNW - 10
18.08.2018 18:00:00 30,0 17,0 13 7 WNW - 10
18.08.2018 17:00:00 30,8 15,6 15 8 WNW 1014,4 10
18.08.2018 16:00:00 31,0 16,0 15 8 NW - 10
18.08.2018 15:00:00 31,0 18,0 16 9 NW - 10
18.08.2018 14:00:00 30,4 19,2 15 8 WNW 1015,0 10
18.08.2018 13:00:00 31,0 19,0 8 4 N - 10
18.08.2018 12:00:00 30,0 19,0 13 7 WNW - 10
18.08.2018 11:00:00 29,6 20,2 13 7 NW 1015,4 10
18.08.2018 10:00:00 29,0 21,0 13 7 WNW - 10
18.08.2018 09:00:00 28,0 21,0 9 5 WNW - 10
18.08.2018 08:00:00 26,3 22,7 5 3 WNW 1014,7 10
18.08.2018 07:00:00 25,0 23,0 5 3 N - 10
18.08.2018 06:00:00 25,0 22,0 4 2 NW - 10
18.08.2018 05:00:00 24,3 21,6 8 4 WZW 1013,9 10
18.08.2018 04:00:00 24,0 22,0 9 5 WZW - 10
18.08.2018 03:00:00 24,0 21,0 5 3 WNW - 10
18.08.2018 02:00:00 24,0 21,2 5 3 WNW 1014,3 10
18.08.2018 01:00:00 24,0 21,0 4 2 WNW - 10
18.08.2018 00:00:00 25,0 21,0 5 3 NW - 10
17.08.2018 23:00:00 25,1 20,7 8 4 NNW 1015,0 10
17.08.2018 22:00:00 25,0 21,0 8 4 NW - 10
17.08.2018 21:00:00 25,0 21,0 15 8 NNW - 10
17.08.2018 20:00:00 26,4 20,6 11 6 NW 1014,1 10
17.08.2018 19:00:00 27,0 21,0 16 9 WNW - 10
17.08.2018 18:00:00 29,0 19,0 15 8 WNW - 10
17.08.2018 17:00:00 29,7 18,2 18 10 NW 1013,4 10
17.08.2018 16:00:00 30,0 18,0 15 8 WNW - 10
17.08.2018 15:00:00 30,0 18,0 21 11 NW - 10
17.08.2018 14:00:00 30,4 17,8 22 12 NW 1014,3 10
17.08.2018 13:00:00 30,0 16,0 15 8 WNW - 10
17.08.2018 12:00:00 30,0 17,0 16 9 NNW - 10
17.08.2018 11:00:00 29,8 18,2 13 7 NNW 1014,7 10
17.08.2018 10:00:00 29,0 18,0 16 9 N - 10
17.08.2018 09:00:00 28,0 20,0 13 7 WNW - 10
17.08.2018 08:00:00 26,0 22,1 16 9 WNW 1014,6 10
17.08.2018 07:00:00 25,0 22,0 9 5 WNW - 10
17.08.2018 06:00:00 24,0 22,0 5 3 W - 10
17.08.2018 05:00:00 24,0 21,3 8 4 WNW 1013,2 10
17.08.2018 04:00:00 24,0 21,0 5 3 W - 10
17.08.2018 03:00:00 24,0 21,0 8 4 WZW - 10
17.08.2018 02:00:00 24,1 21,0 8 4 W 1013,7 10
17.08.2018 01:00:00 24,0 21,0 5 3 WZW - 10
17.08.2018 00:00:00 24,0 20,0 8 4 WZW - 10
16.08.2018 23:00:00 24,6 20,0 4 2 WNW 1013,6 10
16.08.2018 22:00:00 25,0 20,0 5 3 NW - 10
16.08.2018 21:00:00 25,0 20,0 11 6 NNW - 10
16.08.2018 20:00:00 26,1 19,6 11 6 NW 1012,5 10
16.08.2018 19:00:00 27,0 19,0 22 12 NW - 10
16.08.2018 18:00:00 28,0 20,0 24 13 WNW - 10
16.08.2018 17:00:00 28,8 19,7 26 14 WNW 1012,4 10
16.08.2018 16:00:00 29,0 19,0 22 12 WNW - 10
16.08.2018 15:00:00 30,0 19,0 22 12 WNW - 10
16.08.2018 14:00:00 29,2 19,6 21 11 WNW 1013,1 10
16.08.2018 13:00:00 30,0 19,0 24 13 NW - 10
16.08.2018 12:00:00 30,0 19,0 26 14 NW - 10
16.08.2018 11:00:00 29,2 17,7 24 13 NW 1013,6 10
16.08.2018 10:00:00 29,0 18,0 18 10 WNW - 10
16.08.2018 09:00:00 28,0 19,0 21 11 NW - 10
16.08.2018 08:00:00 26,3 20,1 16 9 NNW 1013,0 10
16.08.2018 07:00:00 25,0 21,0 16 9 NW - 10
16.08.2018 06:00:00 25,0 20,0 21 11 NW - 10
16.08.2018 05:00:00 25,1 19,2 16 9 WNW 1012,2 10
16.08.2018 04:00:00 25,0 19,0 26 14 WNW - 10
16.08.2018 03:00:00 26,0 19,0 16 9 W - 10
16.08.2018 02:00:00 25,2 18,8 18 10 WNW 1012,9 10
16.08.2018 01:00:00 25,0 18,0 22 12 WNW - 10
16.08.2018 00:00:00 25,0 19,0 15 8 WNW - 10
15.08.2018 23:00:00 25,5 19,2 13 7 WNW 1013,5 10
15.08.2018 22:00:00 26,0 20,0 9 5 WNW - 10
15.08.2018 21:00:00 26,0 20,0 21 11 WNW - 10
15.08.2018 20:00:00 26,9 19,8 16 9 NW 1013,0 10
15.08.2018 19:00:00 28,0 19,0 24 13 NW - 10
15.08.2018 18:00:00 29,0 20,0 28 15 WNW - 10
15.08.2018 17:00:00 29,9 20,3 24 13 WNW 1012,8 10
15.08.2018 16:00:00 30,0 20,0 22 12 NW - 10
15.08.2018 15:00:00 31,0 19,0 22 12 WNW - 10
15.08.2018 14:00:00 30,9 20,8 18 10 W 1013,3 10
15.08.2018 13:00:00 30,0 21,0 15 8 W - 10
15.08.2018 12:00:00 31,0 21,0 21 11 NNW - 10
15.08.2018 11:00:00 30,3 20,5 18 10 WNW 1013,7 10
15.08.2018 10:00:00 30,0 21,0 9 5 WNW - 10
15.08.2018 09:00:00 28,0 21,0 15 8 NW - 10
15.08.2018 08:00:00 26,5 23,4 11 6 NW 1012,8 10
15.08.2018 07:00:00 26,0 23,0 9 5 NNW - 10
15.08.2018 06:00:00 25,0 23,0 8 4 NW - 10
15.08.2018 05:00:00 25,7 23,0 8 4 WNW 1012,1 10
15.08.2018 04:00:00 26,0 23,0 8 4 WNW - 10
15.08.2018 03:00:00 26,0 23,0 16 9 WNW - 10

tt = temperatuur
td = dauwpunt
ff = windsnelheid
dd = windrichting
ppp = luchtdruk
vv = zicht

Weerstations in de omgeving